Temperature
2 2 2 1 1 1 1 2 2 3 2 1 1 0 -0 -1 -1 -1 -2 -2 -2 -2 -1 -1 -1 -0 -0 0 1 1 1 1 1 2 2 2 2 2 2 2 2 2 2 2
1 1 1 1 1 1 1 1 1 1 1 0 -0 -1 -1 -1 -2 -2 -2 -2 -2 -2 -2 -2 -1 -1 -1 -0 0 0 1 1 1 1 1 1 1 1 1 1 1 1 1 1
1 1 1 1 -0 -0 -0 -1 -0 -0 -0 -1 -1 -1 -2 -2 -2 -3 -3 -3 -3 -3 -2 -2 -2 -1 -1 -1 -0 -0 -0 -0 0 0 0 0 0 0 0 0 1 1 1 1
0 0 -0 0 -1 -1 -1 -1 -2 -1 -1 -2 -2 -2 -3 -3 -3 -3 -3 -3 -3 -3 -3 -2 -2 -2 -1 -1 -1 -1 -1 -1 -1 -1 -0 -0 -0 -0 -0 -0 0 0 0 0
-1 -0 0 -1 -1 -2 -2 -2 -2 -2 -2 -3 -3 -2 -2 -3 -4 -4 -4 -3 -3 -3 -3 -3 -3 -2 -2 -2 -2 -2 -2 -2 -1 -1 -1 -1 -1 -1 -1 -1 -1 -1 -1 -1
-1 -1 -1 -1 -2 -3 -2 -1 -3 -3 -3 -4 -3 -1 -1 -4 -4 -4 -4 -4 -4 -4 -3 -3 -3 -3 -3 -2 -2 -2 -2 -2 -2 -2 -2 -2 -1 -1 -1 -1 -1 -1 -1 -1
-2 -2 -1 -2 -3 -2 -1 -2 -4 -4 -4 -5 -4 -4 -5 -5 -5 -4 -4 -4 -4 -4 -4 -4 -3 -3 -3 -3 -3 -3 -3 -3 -2 -2 -2 -2 -2 -2 -2 -2 -2 -2 -2 -2
-2 -2 -2 -4 -3 -3 -3 -4 -5 -5 -5 -5 -6 -6 -6 -5 -5 -5 -5 -4 -4 -4 -4 -4 -4 -4 -4 -4 -3 -3 -3 -3 -3 -3 -3 -3 -3 -3 -3 -3 -3 -3 -3 -2
-3 -2 -4 -5 -5 -5 -5 -5 -5 -6 -6 -6 -6 -6 -6 -6 -6 -6 -6 -5 -5 -5 -4 -4 -4 -4 -4 -4 -4 -4 -3 -3 -3 -3 -3 -3 -3 -3 -3 -3 -3 -3 -3 -3
-4 -3 -4 -5 -5 -6 -6 -6 -6 -6 -6 -6 -7 -7 -7 -7 -7 -6 -6 -6 -6 -5 -5 -5 -5 -5 -5 -5 -4 -4 -4 -4 -4 -4 -4 -4 -4 -4 -4 -4 -4 -4 -4 -4
-5 -4 -5 -5 -6 -6 -6 -6 -7 -7 -7 -7 -7 -7 -7 -7 -7 -7 -7 -7 -6 -6 -6 -6 -5 -5 -5 -5 -5 -5 -5 -5 -5 -4 -4 -4 -4 -4 -5 -5 -5 -5 -5 -5
-5 -5 -6 -6 -6 -7 -7 -7 -7 -7 -7 -8 -8 -8 -8 -8 -8 -7 -7 -7 -7 -7 -6 -6 -6 -6 -6 -6 -5 -5 -5 -5 -5 -5 -5 -5 -5 -5 -5 -5 -5 -5 -5 -5
-7 -7 -7 -7 -7 -7 -8 -8 -8 -8 -8 -8 -8 -8 -8 -8 -8 -8 -8 -7 -7 -7 -7 -7 -7 -6 -6 -6 -6 -6 -6 -6 -6 -6 -6 -6 -6 -6 -6 -6 -6 -6 -6 -6
-8 -8 -8 -8 -8 -8 -8 -8 -8 -8 -9 -9 -9 -9 -9 -8 -8 -8 -8 -8 -8 -8 -7 -7 -7 -7 -7 -7 -7 -7 -7 -7 -6 -6 -6 -6 -7 -7 -7 -7 -6 -6 -6 -6
-8 -8 -9 -9 -9 -9 -9 -9 -9 -9 -9 -9 -9 -9 -9 -9 -9 -9 -8 -8 -8 -8 -8 -8 -8 -7 -7 -7 -7 -7 -7 -7 -7 -7 -7 -7 -7 -7 -7 -7 -7 -7 -7 -7
-9 -9 -9 -9 -9 -9 -9 -9 -10 -10 -10 -10 -10 -9 -9 -9 -9 -9 -9 -9 -9 -9 -9 -8 -8 -8 -8 -8 -8 -8 -8 -8 -7 -7 -7 -7 -7 -7 -7 -7 -7 -7 -7 -7
-9 -10 -10 -10 -10 -10 -10 -10 -10 -10 -10 -10 -10 -10 -10 -9 -9 -9 -9 -9 -9 -9 -9 -9 -9 -9 -9 -9 -8 -8 -8 -8 -8 -8 -8 -8 -8 -8 -8 -8 -8 -8 -8 -8
-9 -10 -10 -10 -10 -10 -10 -10 -10 -10 -10 -10 -10 -10 -10 -10 -10 -10 -10 -10 -10 -10 -9 -10 -9 -9 -9 -9 -9 -9 -9 -9 -8 -8 -8 -8 -8 -8 -8 -8 -8 -8 -8 -8
-10 -10 -10 -10 -11 -11 -11 -11 -11 -10 -10 -11 -11 -10 -10 -10 -11 -10 -10 -10 -10 -10 -10 -10 -10 -10 -10 -10 -9 -9 -9 -9 -9 -9 -9 -9 -9 -9 -9 -9 -9 -9 -9 -9
-10 -10 -10 -11 -11 -11 -11 -11 -11 -11 -11 -11 -11 -11 -11 -11 -11 -11 -11 -11 -11 -11 -11 -11 -10 -10 -10 -10 -10 -10 -10 -10 -10 -9 -9 -9 -9 -10 -9 -9 -9 -9 -9 -9
-11 -11 -11 -11 -11 -11 -11 -11 -11 -11 -11 -11 -11 -11 -11 -11 -11 -12 -11 -11 -11 -11 -11 -11 -11 -11 -10 -10 -10 -10 -10 -10 -10 -10 -10 -10 -10 -10 -10 -10 -10 -10 -10 -10
-11 -11 -11 -11 -11 -11 -11 -11 -12 -12 -12 -12 -12 -12 -12 -12 -12 -12 -12 -12 -12 -12 -11 -11 -11 -11 -11 -11 -11 -11 -11 -11 -11 -10 -10 -10 -10 -10 -10 -10 -10 -10 -10 -10
-11 -12 -12 -12 -12 -12 -12 -12 -12 -12 -12 -12 -12 -12 -12 -12 -12 -12 -12 -12 -12 -12 -12 -12 -12 -12 -12 -12 -11 -11 -11 -11 -11 -11 -11 -11 -11 -11 -11 -11 -11 -11 -11 -10
-12 -12 -12 -12 -12 -12 -12 -12 -12 -12 -12 -12 -12 -12 -13 -13 -12 -12 -13 -12 -12 -12 -12 -12 -12 -12 -12 -12 -12 -12 -12 -11 -11 -11 -11 -11 -11 -11 -11 -11 -11 -11 -11 -11
-12 -12 -12 -12 -12 -12 -12 -12 -12 -12 -12 -12 -13 -13 -13 -13 -13 -13 -13 -13 -13 -12 -12 -12 -12 -12 -12 -12 -12 -12 -12 -12 -12 -12 -12 -12 -12 -11 -11 -11 -11 -11 -11 -11
-12 -12 -13 -13 -13 -13 -13 -13 -13 -13 -13 -13 -13 -13 -13 -13 -13 -13 -13 -13 -13 -13 -13 -13 -13 -12 -12 -12 -12 -12 -12 -12 -12 -12 -12 -12 -12 -12 -12 -12 -12 -12 -12 -11
-13 -13 -13 -13 -13 -13 -13 -13 -13 -13 -13 -13 -13 -13 -13 -13 -13 -13 -13 -13 -13 -13 -13 -13 -13 -13 -13 -13 -13 -13 -13 -12 -12 -12 -12 -12 -12 -12 -12 -12 -12 -12 -12 -12
Wind_Speed
10 9 5 6 8 6 5 7 8 9 8 8 10 9 9 9 9 8 8 8 7 6 5 5 5 4 4 3 2 2 2 2 1 1 1 2 2 1 1 1 0 0 1 1
8 6 5 6 7 7 7 8 8 9 7 7 9 7 7 8 8 9 9 8 7 7 6 5 5 4 4 3 2 1 1 1 1 1 1 1 1 1 1 1 1 1 0 0
6 5 5 5 5 4 3 3 4 5 6 8 8 8 8 8 8 9 10 9 7 7 6 5 5 4 3 3 2 1 1 1 1 1 1 1 1 1 1 1 1 1 1 0
4 4 4 0 3 3 2 2 3 4 6 7 8 8 6 6 8 10 10 9 7 7 6 5 5 4 3 2 2 2 1 1 1 1 1 1 1 0 0 1 1 0 1 1
2 4 5 2 3 3 3 3 4 5 7 8 9 6 4 8 10 10 10 9 7 6 6 5 4 4 3 2 2 2 2 2 2 1 1 0 0 0 0 0 1 1 1 1
2 3 3 2 5 6 4 3 4 6 8 9 9 5 6 10 11 11 9 8 7 6 5 5 5 4 2 2 2 2 2 2 2 1 1 1 1 1 0 0 0 1 1 1
4 4 3 4 7 4 2 4 6 7 7 7 6 6 9 10 10 9 9 8 7 6 5 5 5 4 3 2 3 3 3 2 2 2 1 1 1 1 0 0 0 1 1 2
3 4 3 4 3 2 4 5 6 7 6 6 7 8 9 9 9 10 10 9 7 6 5 5 5 4 3 3 4 4 3 3 2 2 2 1 1 1 1 0 0 0 1 1
3 2 2 2 2 4 5 6 6 7 7 6 7 8 9 9 9 9 9 8 7 6 5 5 5 4 4 4 4 4 3 3 3 3 2 2 1 1 1 1 0 1 1 1
4 4 4 4 4 5 5 6 7 7 7 6 7 8 8 8 8 8 8 8 7 6 5 5 5 5 4 4 4 3 3 3 2 2 2 2 2 1 1 1 1 1 1 2
5 5 6 4 4 6 7 7 7 7 6 6 6 7 7 7 8 7 7 7 7 6 6 6 6 6 5 4 4 3 3 3 2 2 2 2 2 2 2 2 3 3 3 3
5 5 6 7 6 6 7 7 7 7 7 6 6 7 7 7 7 7 7 7 6 6 6 6 6 6 5 4 3 3 3 2 2 2 2 2 2 2 4 3 4 5 4 4
5 5 6 6 6 5 6 7 7 7 7 7 7 6 7 7 7 7 7 7 7 6 6 6 6 6 5 4 3 3 3 2 2 2 2 2 2 2 2 3 4 4 5 5
3 3 4 4 5 6 6 6 6 6 6 6 6 6 6 6 7 7 7 7 7 6 6 6 5 5 5 5 4 3 3 2 2 2 2 2 2 2 2 2 3 3 4 5
3 4 4 5 5 6 6 6 6 6 7 7 6 7 7 7 7 8 7 7 6 6 6 6 5 5 5 4 4 3 3 2 2 2 2 2 2 2 2 2 2 3 3 4
5 4 4 5 6 6 7 7 7 7 7 8 8 8 7 7 7 7 7 6 6 6 6 6 5 5 5 4 4 3 2 4 3 2 2 2 2 2 2 2 2 3 3 4
4 5 5 6 7 7 7 7 7 7 7 8 8 8 7 7 7 7 7 6 6 6 6 6 6 5 5 4 3 3 3 3 4 3 2 2 2 2 2 2 2 3 3 4
4 5 5 6 7 8 8 8 7 7 7 8 8 7 7 7 8 8 8 7 7 6 6 5 5 5 4 4 3 3 2 2 2 2 2 2 2 2 2 2 3 3 4 4
4 5 5 6 6 6 7 7 7 7 7 6 6 7 7 7 7 7 7 7 6 7 6 5 7 5 4 4 4 2 2 2 2 2 2 3 3 2 2 2 3 3 4 4
5 5 5 6 6 5 6 7 6 6 6 6 6 6 7 7 6 6 6 6 5 5 6 6 5 4 4 4 4 2 2 2 2 2 2 2 2 2 3 3 3 3 4 4
6 6 6 6 6 6 6 6 6 6 6 6 5 6 7 7 6 6 5 5 6 6 6 6 5 4 4 3 3 2 2 2 2 2 2 2 2 3 3 3 3 4 4 4
5 6 6 6 6 7 6 6 5 6 6 6 6 6 6 6 6 6 5 5 6 8 6 5 4 5 5 4 2 2 2 2 2 2 2 2 2 3 3 3 3 4 4 4
5 5 6 6 6 7 7 6 5 5 6 6 6 6 6 6 5 5 5 5 5 8 7 5 6 7 6 3 2 2 2 2 2 2 3 3 3 3 3 4 4 4 4 4
5 5 5 5 5 5 6 6 6 5 5 6 6 6 6 5 5 4 5 7 9 9 6 6 8 7 6 3 2 2 2 3 3 3 3 3 3 3 3 4 4 4 4 5
5 5 5 5 4 4 5 6 6 6 5 5 6 6 5 4 4 5 6 6 8 8 5 6 7 8 5 3 3 3 3 3 3 3 3 3 3 3 4 4 4 4 5 5
4 4 4 4 4 4 4 4 4 5 5 5 5 5 5 4 5 5 5 5 6 7 6 5 5 5 4 3 3 3 3 3 4 3 3 4 4 4 4 4 5 5 5 5
4 3 3 4 4 4 4 4 4 5 5 5 6 6 6 5 5 5 6 5 5 5 5 5 4 4 4 4 4 4 3 3 3 4 4 4 4 4 4 5 5 5 6 6
Wind_Direction
274 286 285 293 296 288 267 272 273 281 285 319 332 330 338 347 354 0 360 358 356 352 352 354 356 358 1 7 26 54 82 82 65 67 79 77 67 60 63 74 100 197 205 200
279 279 282 291 300 283 276 278 277 287 293 324 324 331 342 349 352 355 348 344 344 344 344 345 344 343 345 352 4 32 71 75 61 57 63 69 64 54 57 55 64 70 68 200
278 293 284 277 304 288 288 296 286 284 302 331 339 340 336 338 345 348 342 337 336 334 330 329 329 331 329 339 9 28 43 60 75 63 51 56 93 87 59 46 52 58 33 43
286 291 251 2 16 331 277 345 337 317 326 333 329 321 321 336 343 340 341 338 333 331 328 328 330 331 333 353 20 24 20 22 47 43 26 17 68 90 46 36 21 348 338 350
264 268 271 290 357 335 283 296 1 338 337 342 338 322 341 2 348 337 335 336 332 331 330 331 335 335 348 15 26 25 6 353 353 358 336 338 356 349 331 334 350 336 315 309
253 262 268 340 337 323 270 262 17 345 333 337 341 331 332 345 338 336 341 344 343 341 343 346 348 351 1 17 18 4 343 332 336 327 309 326 321 319 299 241 302 332 329 317
251 256 273 345 331 322 271 330 344 334 328 331 328 316 320 329 335 339 342 346 349 348 350 349 350 353 357 8 356 346 340 335 340 343 346 338 335 340 349 72 42 349 339 335
241 243 269 9 6 349 324 329 323 326 325 320 321 324 326 331 335 339 342 345 349 349 350 352 355 353 353 351 345 345 346 346 345 344 352 343 347 345 347 57 78 355 349 341
241 261 344 338 327 324 322 312 317 320 321 320 320 324 328 331 334 336 338 341 344 345 346 350 354 353 344 341 342 343 348 348 346 348 350 348 339 325 323 320 307 311 312 308
263 268 290 297 313 323 321 315 315 316 317 320 319 321 324 328 332 335 337 339 340 343 345 345 348 347 342 340 341 342 343 347 348 351 350 351 344 328 321 315 309 306 299 297
262 289 303 290 310 322 320 319 320 322 323 323 320 320 322 322 326 329 332 335 337 337 337 337 339 339 343 344 341 336 338 345 349 352 347 347 346 335 319 309 300 296 292 287
273 293 290 297 311 316 313 315 319 322 325 327 322 315 317 318 321 324 327 330 335 337 336 335 336 337 341 341 336 331 333 340 342 341 341 339 341 352 2 347 343 334 323 311
282 300 293 295 306 319 315 315 318 318 316 317 320 317 315 314 318 321 325 330 331 330 330 331 333 335 338 337 331 325 325 324 325 326 325 321 324 332 339 352 357 351 345 338
301 312 298 311 314 321 318 315 316 316 318 318 319 320 320 318 321 324 326 327 327 328 328 329 330 332 334 333 329 326 326 327 325 313 307 301 304 309 314 322 332 342 349 346
324 315 298 305 312 321 323 325 325 325 328 329 328 325 325 323 322 321 321 323 325 325 326 327 328 329 332 330 328 326 326 327 325 320 314 309 309 309 314 320 324 329 334 341
317 318 313 314 318 324 328 328 323 320 324 324 324 323 321 318 316 317 319 323 322 321 322 322 321 323 326 326 325 321 324 339 339 327 323 325 321 317 318 320 322 323 324 327
318 320 321 318 318 320 320 318 313 312 315 316 317 319 320 319 318 320 323 323 318 313 313 314 316 320 322 322 319 317 324 335 343 337 332 327 321 314 313 313 315 320 319 323
289 292 295 297 304 310 315 317 316 314 311 311 314 316 317 317 316 317 320 321 318 316 316 315 318 319 319 322 320 316 322 330 333 334 336 336 331 327 323 318 318 320 323 327
315 311 311 310 309 309 311 314 316 315 313 312 314 315 314 311 310 312 316 317 313 313 321 324 325 324 320 324 325 312 315 324 331 335 337 336 339 335 329 325 323 322 323 324
326 324 322 320 320 316 312 314 317 316 316 316 313 313 315 316 317 317 317 313 307 306 311 314 316 316 318 316 317 307 315 322 323 324 327 328 329 329 329 328 326 324 323 322
318 319 319 319 319 319 316 316 317 317 319 319 314 312 312 314 316 314 313 314 318 320 317 317 319 314 310 309 313 310 312 310 309 310 312 314 318 321 323 324 322 319 319 319
310 311 313 315 317 318 321 321 317 314 317 319 316 312 311 313 317 316 307 301 312 321 322 314 312 311 314 318 314 307 302 299 297 298 299 302 305 309 311 314 313 313 314 314
305 306 309 312 313 313 316 319 318 315 314 314 313 312 311 310 312 309 313 316 318 321 322 313 314 318 324 328 315 303 298 294 292 290 290 293 294 296 298 302 305 306 308 309
305 307 308 310 311 312 317 322 322 318 312 308 306 306 307 309 310 308 303 311 321 321 318 314 320 325 331 328 313 302 296 292 289 287 287 288 290 291 291 293 297 301 301 302
303 303 303 309 312 312 313 316 318 319 320 319 319 320 317 309 304 310 312 314 319 322 321 322 325 327 328 313 302 294 290 284 283 286 283 284 286 286 287 289 291 294 296 296
305 304 303 302 300 303 308 312 315 318 320 321 324 326 323 318 314 313 314 318 319 321 321 317 319 321 314 305 297 293 290 292 295 293 285 284 283 283 283 285 289 289 290 290
306 307 308 311 313 315 313 312 313 316 318 317 316 319 322 323 323 323 322 321 322 321 319 318 319 317 312 307 302 298 296 293 290 287 285 283 282 281 281 283 284 285 285 285
Height
1512 1510 1510 1510 1510 1508 1508 1504 1499 1494 1494 1497 1499 1498 1496 1494 1491 1488 1486 1483 1481 1479 1477 1475 1474 1473 1473 1473 1473 1473 1474 1474 1475 1476 1476 1476 1477 1477 1478 1478 1478 1479 1479 1479
1513 1510 1509 1509 1508 1507 1507 1506 1503 1500 1499 1502 1501 1499 1497 1494 1491 1489 1486 1483 1481 1479 1477 1475 1474 1473 1472 1472 1472 1472 1473 1473 1474 1474 1475 1475 1475 1476 1476 1476 1476 1477 1477 1477
1509 1508 1507 1506 1508 1508 1509 1508 1506 1503 1504 1503 1500 1499 1497 1494 1492 1490 1486 1483 1481 1478 1476 1475 1474 1473 1472 1471 1471 1472 1472 1472 1472 1473 1473 1474 1474 1474 1474 1474 1474 1474 1475 1475
1512 1510 1511 1510 1512 1511 1509 1509 1509 1507 1505 1504 1501 1499 1497 1494 1492 1489 1486 1483 1480 1478 1476 1474 1473 1472 1472 1471 1471 1471 1471 1471 1471 1471 1472 1472 1472 1472 1472 1472 1472 1472 1472 1473
1513 1509 1504 1509 1512 1512 1510 1507 1509 1508 1506 1504 1501 1497 1494 1494 1492 1489 1486 1483 1480 1478 1476 1474 1472 1471 1471 1470 1470 1470 1470 1470 1470 1470 1470 1470 1470 1470 1470 1470 1470 1470 1470 1470
1515 1511 1507 1511 1513 1511 1511 1505 1509 1508 1506 1504 1501 1496 1495 1493 1491 1488 1485 1483 1480 1477 1475 1474 1472 1471 1470 1470 1469 1469 1469 1469 1469 1469 1468 1468 1468 1468 1468 1468 1468 1468 1468 1468
1516 1513 1508 1515 1514 1511 1509 1509 1510 1508 1507 1505 1502 1501 1498 1493 1490 1487 1485 1482 1479 1477 1475 1473 1472 1471 1470 1469 1469 1469 1468 1468 1468 1467 1467 1467 1467 1467 1467 1466 1466 1466 1466 1466
1517 1515 1515 1517 1514 1515 1514 1512 1510 1508 1506 1504 1501 1499 1496 1493 1489 1486 1483 1481 1479 1476 1474 1473 1472 1471 1469 1469 1469 1468 1468 1467 1466 1466 1466 1465 1465 1465 1465 1465 1464 1464 1464 1463
1519 1518 1518 1517 1516 1515 1513 1511 1509 1507 1505 1502 1500 1497 1494 1491 1488 1485 1483 1480 1478 1476 1474 1472 1471 1470 1469 1468 1468 1467 1466 1466 1465 1465 1464 1464 1463 1463 1463 1463 1463 1462 1462 1462
1519 1516 1516 1516 1515 1513 1512 1510 1508 1505 1503 1500 1498 1495 1492 1489 1487 1484 1482 1479 1477 1475 1473 1471 1470 1469 1468 1467 1466 1466 1465 1464 1464 1463 1463 1462 1462 1462 1461 1461 1461 1460 1460 1460
1518 1516 1515 1513 1513 1512 1510 1508 1505 1503 1501 1498 1496 1493 1491 1488 1485 1483 1480 1478 1476 1474 1472 1470 1469 1468 1467 1466 1465 1464 1464 1463 1462 1462 1461 1461 1460 1460 1460 1459 1459 1459 1458 1458
1516 1516 1515 1512 1511 1510 1508 1506 1503 1501 1498 1496 1494 1491 1489 1486 1484 1481 1479 1477 1475 1473 1471 1469 1468 1466 1465 1464 1464 1463 1462 1461 1461 1460 1460 1459 1459 1458 1457 1457 1457 1456 1456 1455
1516 1514 1513 1511 1509 1508 1506 1504 1501 1499 1497 1494 1492 1490 1487 1484 1482 1480 1477 1475 1473 1471 1470 1468 1466 1465 1464 1463 1462 1461 1460 1460 1459 1459 1458 1457 1457 1456 1455 1455 1454 1453 1453 1452
1514 1513 1511 1509 1507 1505 1503 1501 1499 1496 1494 1492 1489 1487 1485 1482 1480 1477 1475 1474 1472 1470 1468 1466 1465 1463 1462 1461 1461 1460 1459 1458 1458 1457 1457 1456 1455 1454 1454 1452 1451 1450 1450 1449
1512 1511 1509 1507 1505 1503 1501 1498 1496 1494 1491 1489 1487 1484 1482 1480 1477 1475 1474 1472 1470 1468 1466 1464 1463 1462 1461 1460 1459 1458 1457 1457 1456 1455 1455 1454 1454 1453 1452 1451 1449 1448 1447 1446
1510 1509 1507 1505 1503 1501 1498 1496 1493 1491 1488 1486 1484 1482 1480 1477 1475 1473 1471 1469 1467 1465 1463 1462 1461 1460 1459 1458 1457 1456 1455 1455 1454 1453 1453 1452 1451 1450 1450 1449 1447 1446 1445 1444
1508 1506 1504 1502 1501 1498 1496 1494 1491 1488 1486 1483 1481 1479 1477 1475 1473 1471 1469 1467 1465 1463 1461 1460 1458 1458 1457 1456 1455 1454 1453 1453 1452 1451 1450 1450 1449 1448 1447 1446 1445 1444 1443 1442
1507 1505 1503 1501 1499 1496 1493 1491 1488 1486 1483 1481 1479 1477 1474 1472 1470 1468 1466 1464 1462 1461 1459 1458 1457 1456 1455 1454 1453 1452 1451 1451 1450 1449 1448 1448 1447 1446 1445 1444 1443 1442 1441 1440
1505 1503 1501 1499 1496 1494 1491 1488 1485 1483 1481 1479 1476 1474 1472 1470 1468 1465 1463 1461 1459 1458 1457 1456 1455 1453 1452 1452 1451 1450 1449 1449 1448 1447 1446 1446 1445 1444 1443 1442 1441 1440 1439 1437
1502 1500 1498 1496 1494 1491 1488 1486 1483 1481 1479 1476 1474 1472 1469 1467 1465 1463 1461 1459 1458 1456 1454 1453 1452 1451 1450 1449 1449 1448 1447 1447 1446 1445 1444 1443 1443 1442 1441 1440 1439 1438 1436 1435
1500 1498 1495 1493 1491 1488 1486 1483 1481 1478 1476 1474 1471 1469 1467 1465 1463 1461 1458 1457 1456 1454 1452 1451 1450 1449 1448 1447 1446 1446 1445 1444 1444 1443 1442 1441 1441 1440 1439 1438 1437 1436 1434 1433
1497 1495 1493 1491 1488 1486 1484 1481 1479 1476 1474 1471 1469 1467 1465 1462 1460 1459 1457 1455 1453 1451 1450 1448 1447 1446 1445 1445 1444 1443 1442 1442 1441 1441 1440 1439 1438 1438 1437 1436 1435 1434 1432 1431
1495 1493 1490 1488 1486 1483 1481 1479 1476 1474 1472 1469 1467 1465 1463 1460 1458 1456 1454 1453 1451 1449 1447 1446 1445 1444 1443 1442 1441 1441 1440 1439 1439 1438 1437 1437 1436 1435 1434 1433 1432 1431 1430 1428
1492 1490 1488 1485 1483 1481 1479 1477 1474 1472 1470 1467 1465 1463 1461 1458 1456 1455 1453 1451 1449 1447 1445 1444 1443 1442 1441 1440 1439 1438 1438 1437 1436 1435 1435 1434 1433 1432 1432 1431 1429 1428 1427 1426
1489 1487 1485 1483 1481 1479 1476 1474 1472 1470 1467 1465 1463 1461 1459 1457 1454 1452 1450 1448 1447 1445 1443 1442 1441 1440 1438 1437 1436 1436 1435 1434 1433 1432 1432 1431 1430 1429 1428 1427 1426 1425 1424 1422
1486 1484 1483 1481 1479 1477 1474 1472 1470 1467 1465 1463 1461 1459 1456 1454 1452 1450 1448 1446 1444 1443 1441 1440 1438 1437 1436 1435 1434 1433 1432 1431 1431 1430 1429 1428 1427 1426 1425 1424 1423 1422 1420 1419
1484 1482 1480 1478 1477 1475 1472 1470 1468 1465 1463 1461 1458 1456 1454 1452 1450 1448 1446 1444 1442 1441 1439 1437 1436 1435 1433 1432 1431 1430 1429 1428 1428 1427 1426 1425 1424 1423 1422 1421 1420 1418 1417 1415